Other Public Products
Issued by NWS Charleston, SC

Current Version | Previous Version | Text Only | Print | Product List | Glossary Off
Versions: 1 2 3 4 5 6 7 8 9 10 11 12 13 14 15 16 17 18 19 20 21 22 23 24 25 26 27 28 29 30 31 32 33 34 35 36 37 38 39 40 41 42 43 44 45 46 47 48 49 50

942
FPUS82 KCHS 190227
OPUCHS

TEST...KCHS/KSAV Gateway Observations...TEST
National Weather Service Charleston SC
900 PM EST SAT NOV 18 2017

NOTE: "fair" indicates few or no clouds below 12,000 feet with no
significant weather and/or obstructions to visibility.

SCZ050-WAZ558-NCZ071-TXZ119-213-PAZ071-DCZ001-FLZ074-172-MI076-
NYZ176-178-MAZ016-IL014-TNZ027-NJZ106-GAZ044-MD014-190300-

...Gateway Observations for Charleston International...

CITY           SKY/WX    TMP DP  RH WIND       PRES   REMARKS
Chas Airport   CLEAR     63  59  87 S12       29.84F
Seattle        MOCLDY    46  38  73 S6        30.14S
Charlotte      MOCLDY    64  52  64 S15       29.68F
Dallas DFW     MOCLDY    55  35  47 N15G24    30.23R
Dallas Love    MOCLDY    55  35  47 N15       30.25R
Philladelphia  CLOUDY    55  44  66 S9        29.51F
Wash National  CLOUDY    63  48  58 S24G39    29.47F
Baltimore      CLOUDY    60  46  59 S10G20    29.49F
Miami          PTCLDY    75  65  70 CALM      29.97R
Detroit        FLURRIES  36  34  92 NW17G24   29.40R WCI  26
Newark         CLOUDY    49  45  86 S3        29.53F
Laguardia      CLOUDY    51  45  79 S8        29.54F
J F K          LGT RAIN  50  48  93 S7        29.56F
Boston Logan   LGT RAIN  47  45  93 SE8       29.59F
Ft. Lauderdale MOCLDY    74  66  76 CALM      29.96R
Chicago O`Hare CLOUDY    39  29  67 NW23G29   29.73R WCI  28
Chicago Midway CLOUDY    40  32  73 NW15G23   29.74R WCI  32
Houston Bush   CLEAR     67  44  43 N23G33    30.07R
Houston Hobby  PTCLDY    68  44  42 N21G30    30.04R
Nashville      CLOUDY    47  41  80 NW14G24   29.80R
Atlanta        CLOUDY    67  61  81 S12G21    29.72F

$$

GAZ044-118-TXZ119-213-NCZ071-DCZ001-MDZ014-506-PAZ021-071-NJZ106-
NYZ176-178-MAZ106-OHZ011-021-055-MIZ076-KYZ091-ILZ014-INZ047-
MNZ060-ONZ431-190300-

...Gateway Observations for Savannah International...

CITY           SKY/WX    TMP DP  RH WIND       PRES   REMARKS
Savannah Arpt  CLEAR     62  58  86 S9        29.87F
Atlanta        CLOUDY    67  61  81 S12G21    29.72F
Charlotte      MOCLDY    64  52  64 S15       29.68F
Dallas DFW     MOCLDY    55  35  47 N15G24    30.23R
Houston Bush   CLEAR     67  44  43 N23G33    30.07R
Wash National  CLOUDY    63  48  58 S24G39    29.47F
Wash Dulles    CLOUDY    61  46  57 S22G37    29.46F
Baltimore      CLOUDY    60  46  59 S10G20    29.49F
Philadelphia   CLOUDY    55  44  66 S9        29.51F
Newark         CLOUDY    49  45  86 S3        29.53F
Laguardia      CLOUDY    51  45  79 S8        29.54F
J F K          LGT RAIN  50  48  93 S7        29.56F
Boston         LGT RAIN  47  45  93 SE8       29.59F
Pittsburg      LGT RAIN  55  54  96 SE6       29.24F FOG
Akron          LGT RAIN  57  53  86 SW15      29.16F FOG
Cleveland      LGT RAIN  46  44  93 NW21G33   29.25R FOG
Cincinnati     LGT RAIN  43  42  97 NW29G36   29.52R
Columbus       RAIN      45  46 100 NW24G36   29.31R
Detroit        FLURRIES  36  34  92 NW17G24   29.40R WCI  26
Chicago O`Hare CLOUDY    39  29  67 NW23G29   29.73R WCI  28
Minneapolis    PTCLDY    23  12  62 NW20G29   30.01R WCI   8
Indianapolis   CLOUDY    40  37  89 NW29G41   29.65R WCI  29
Toronto Canada LGT RAIN  45  43  93 N12       29.17F FOG

$$




USA.gov is the U.S. government's official web portal to all federal, state and local government web resources and services.